Meteo Giornale » Osservazioni meteo Italia » Catania-Sigonella

ore: 23:55 - Osservazioni Meteo Catania-Sigonella
Lat. 37° 24' N Lon. 14° 55' E Alt. 22 metri s.l.m.

sereno Europe/Rome

14 °C

Sereno

Temp. 24 Ore

12 °C

20 °C

Ovest/Sud-Ovest

11.1 Km/h

Dew point 13 °C

Umidità 93 %

Visibilità  10 Km

Il sole sorge alle ore 05:58

Il sole tramonta alle ore 19:55

Data e Ora Cielo e Fenomeni T °C DP °C Um. % Pres. hPa Vis. km Vento km/h
Ieri h: 23:55 sereno Sereno 14 13 93 1016 10 O/SO 11.1
Ieri h: 22:55 sereno Sereno 14 12 87 1017 10 N 5.5
Ieri h: 21:55 sereno Sereno 16 13 82 1017 10 N 5.5
Ieri h: 20:55 sereno Sereno 17 12 72 1017 10 N/NO 9.3
Ieri h: 19:55 poco_nuvoloso Poco Nuvoloso 17 11 67 1016 10 N 5.5
Ieri h: 17:55 poco_nuvoloso Poco Nuvoloso 18 12 67 1016 10 E 14.8
Ieri h: 16:55 nuvoloso Nuvoloso 19 12 63 1016 10 E 16.7
Ieri h: 15:55 nuvoloso Nuvoloso 19 12 63 1017 8 E 14.8
Ieri h: 14:55 poco_nuvoloso Poco Nuvoloso 20 10 52 1017 8 E 7.4
Ieri h: 13:55 poco_nuvoloso Poco Nuvoloso 20 11 56 1017 8 N 3.7
Ieri h: 12:55 poco_nuvoloso Poco Nuvoloso 19 12 63 1018 8 N 5.5
Ieri h: 11:55 poco_nuvoloso Poco Nuvoloso 18 13 72 1018 7 N 3.7
Ieri h: 10:55 poco_nuvoloso Poco Nuvoloso 16 13 82 1018 7 N 5.5
Ieri h: 09:55 poco_nuvoloso Poco Nuvoloso 15 13 87 1018 7 N 5.5
Ieri h: 08:55 poco_nuvoloso Poco Nuvoloso 13 12 93 1017 7 N 3.7
Ieri h: 07:55 poco_nuvoloso Poco Nuvoloso 12 12 100 1016 8 O/NO 9.3
Ieri h: 06:55 sereno Sereno 12 12 100 1016 8 O 9.3
Ieri h: 03:55 foschia Foschia 13 13 100 1016 4 N 5.5
Ieri h: 01:55 nuvoloso Nuvoloso 13 13 100 1016 10 N 1.8
Ieri h: 00:55 nuvoloso Nuvoloso 13 13 100 1016 10 E/NE 7.4